THOR ABLESTAR DEB, 210

Orbit data source: Space-Track

THOR ABLESTAR DEB, 210 is space debris in LEO originally from a launch on Thu, 29 Jun 1961 UTC launched from the Air Force Eastern Test Range (AFETR). Debris objects in space refer to the collection of defunct objects orbiting the Earth. Examples of debris include non-operational satellites, rocket bodies, and fragments generated from explosions, collisions, or faulty payload assembly.

Loading next visibility...
Identifier
210, 1961-015BE
Orbit
LEO
Country
Flag of USUS
Related business
Manufacturer
Unknown
Mission
Spacecraft
Bus & Motor
Unknown
Mass
Unknown
Launch date (UTC)
1961-06-29 (64 years ago)
Launch vehicle
Unknown
Launch site
Air Force Eastern Test Range (AFETR)
Object type
Payload
Rocket body
Debris
Shape & HBR
Unknown shape, 0.2 m
Radar Cross Section
Medium (>0.1 m² and <1 m²)

Expand to show TLE details & history
Last TLE update: 1 day ago

TLE from 1 day ago
0 THOR ABLESTAR DEB
1 00210U 61015BE  25347.07319402  .00000826  00000-0  74379-3 0  9992
2 00210  66.4568 104.8617 0039252  69.1168 291.4102 13.88832253239555
Epoch: 2025-12-13T01:45Z
TLE epoch observation values (Epoch: 2025-12-13T01:45:23.963Z)
Latitude
-0.00006°
Longitude
-3.49387°
Altitude
924.395 km
Speed
7.395 km/s
True Right ascension
06h 59m 26s
True Declination
0° 00' 00"
Sunlit
Object was in full shadow at epoch
Visualization orbit readout
Latitude
Unknown
Longitude
Unknown
Altitude
Unknown
Speed
Unknown
Apparent Right ascension
Unknown
Apparent Declination
Unknown
Sunlit
N/A
Visualization observer readout
Local Sidereal Time
00:24:32
Azimuth
Unknown
Elevation
Unknown
Doppler factor
Unknown
Orbital elements
Apogee altitude
959.851 km
Perigee altitude
902.47 km
Semi-major axis
7,309.297 km
Eccentricity
0.00393
Inclination
66.4568°
RAAN
104.8617°
Arg. of periapsis
69.1168°
True anomaly
290.9907°
Mean anomaly
291.4102°
Eccentric anomaly
291.20052°
Mean motion
3.4732 °/min
Orbital period
103.65 mins
BSTAR
0.00074379
Loading maneuver chart data...
Computing Atmospheric mass density...

Documentation

Showing up to 5 results
|